Location: Washington
(38.8950°N, 77.0367°W)
Time: 04:24:02
(UTC-04:00)

N. Korean satellite - Visible Passes

Search period start: 25 July 2014 00:00
Search period end: 04 August 2014 00:00
Orbit: 487 x 557 km, 97.3° (Epoch: 24 July)

Date Brightness Start Highest point End Pass type
(mag) Time Alt. Az. Time Alt. Az. Time Alt. Az.
25 Jul 7.0 20:53:24 10° S 20:57:11 74° W 21:01:05 10° NNW visible
27 Jul 10.0 22:05:40 10° W 22:06:05 10° W 22:06:31 10° W visible
28 Jul 9.6 21:50:55 10° SW 21:53:08 15° W 21:55:24 10° WNW visible
29 Jul 9.2 21:37:15 10° SW 21:40:12 21° W 21:43:13 10° NW visible
30 Jul 8.7 21:23:53 10° SSW 21:27:18 30° W 21:30:47 10° NW visible
31 Jul 8.0 21:10:43 10° S 21:14:24 43° W 21:18:11 10° NNW visible
01 Aug 7.3 20:57:42 10° S 21:01:32 64° W 21:05:29 10° NNW visible
02 Aug 6.8 20:44:49 10° SSE 20:48:42 87° ENE 20:52:41 10° N visible
